Temperature
3 3 3 3 3 3 3 3 4 4 4 4 4 4 4 4 4 4 4 4 4 4 4 4 4 4 4 4 4 4 4 4 4 5 5 5 5 5 5 5 5 5 5
2 2 2 2 2 2 2 3 3 3 3 3 3 3 3 3 4 4 4 3 3 3 3 3 4 4 4 4 4 4 4 4 4 4 4 4 4 4 5 5 5 5 5
1 1 1 1 1 2 2 2 2 2 2 2 2 2 3 3 3 3 3 3 3 3 3 3 3 3 3 3 3 3 3 3 3 3 4 4 4 4 4 4 4 4 4
1 1 1 1 1 1 1 1 1 1 1 2 2 2 2 2 2 2 2 2 2 2 2 2 2 3 3 3 3 3 3 3 3 3 3 3 3 3 3 3 3 3 3
-0 -0 -0 0 0 0 0 0 1 1 1 1 1 1 1 1 1 1 1 1 1 2 2 2 2 2 2 2 2 2 2 2 2 2 2 3 3 3 3 2 2 2 3
-1 -0 -0 -0 -0 -0 -0 -0 -0 -0 0 -0 0 0 0 0 0 0 1 1 1 1 1 1 1 1 1 1 1 1 1 2 2 2 2 2 2 2 2 2 2 2 2
-1 -1 -1 -1 -1 -1 -1 -1 -1 -1 -1 -1 -1 -1 -1 -0 -0 -0 -0 -0 0 0 0 1 1 1 1 1 1 1 1 1 1 1 1 1 1 1 1 1 1 1 1
-2 -2 -2 -2 -2 -1 -1 -1 -1 -1 -1 -1 -1 -1 -1 -1 -1 -1 -1 -1 -1 -0 -0 -0 -0 -0 0 0 0 0 1 1 1 0 0 0 0 1 0 0 0 0 0
-2 -2 -2 -2 -2 -2 -2 -2 -2 -2 -2 -2 -2 -2 -2 -2 -2 -1 -1 -1 -1 -1 -1 -1 -1 -1 -0 -0 -0 -0 -0 -0 -0 -0 -0 -0 -0 -0 -0 -0 -0 -1 -1
-3 -3 -2 -2 -2 -2 -2 -2 -2 -2 -2 -2 -2 -2 -2 -2 -2 -2 -2 -2 -2 -1 -1 -1 -1 -1 -1 -1 -1 -1 -1 -1 -1 -1 -1 -1 -1 -1 -1 -1 -1 -1 -1
-3 -3 -3 -3 -3 -2 -3 -3 -3 -3 -3 -3 -3 -3 -2 -2 -2 -2 -2 -2 -2 -2 -2 -2 -2 -2 -2 -2 -2 -2 -2 -2 -2 -2 -1 -1 -1 -1 -1 -1 -2 -2 -2
-3 -3 -3 -3 -3 -3 -3 -3 -3 -3 -3 -3 -3 -3 -3 -3 -3 -3 -3 -3 -3 -3 -2 -2 -2 -2 -2 -3 -3 -3 -3 -3 -2 -2 -2 -2 -2 -2 -2 -2 -2 -2 -2
-4 -4 -4 -4 -4 -4 -4 -4 -4 -4 -4 -4 -4 -4 -3 -3 -3 -3 -3 -3 -3 -3 -3 -3 -3 -3 -3 -3 -3 -3 -3 -3 -3 -3 -3 -3 -3 -3 -3 -2 -2 -2 -2
-4 -4 -4 -4 -4 -4 -4 -4 -4 -4 -4 -4 -4 -4 -4 -4 -4 -4 -4 -4 -4 -4 -4 -3 -3 -3 -4 -4 -3 -3 -4 -4 -4 -4 -3 -3 -3 -3 -3 -3 -3 -3 -3
-4 -4 -5 -5 -5 -5 -5 -5 -5 -5 -5 -5 -5 -5 -5 -5 -4 -4 -4 -4 -4 -4 -4 -4 -4 -4 -4 -4 -4 -4 -4 -4 -4 -4 -4 -4 -4 -4 -4 -4 -4 -4 -4
-5 -5 -5 -5 -5 -5 -5 -5 -5 -5 -5 -5 -5 -5 -5 -5 -5 -5 -5 -5 -5 -5 -4 -4 -4 -4 -4 -4 -4 -4 -4 -4 -4 -4 -4 -4 -4 -4 -4 -4 -4 -4 -4
-5 -5 -5 -5 -6 -6 -6 -6 -6 -5 -5 -5 -5 -6 -6 -5 -5 -5 -5 -5 -5 -5 -5 -5 -5 -5 -5 -5 -4 -4 -4 -4 -4 -4 -4 -4 -4 -4 -5 -5 -5 -5 -5
-6 -6 -6 -6 -6 -6 -6 -6 -6 -6 -6 -6 -6 -6 -6 -6 -6 -5 -5 -5 -5 -5 -5 -5 -5 -5 -5 -5 -5 -5 -5 -4 -4 -4 -4 -4 -5 -5 -5 -5 -5 -5 -5
-6 -6 -6 -6 -6 -6 -6 -7 -7 -6 -6 -6 -6 -6 -6 -6 -6 -5 -5 -5 -5 -5 -5 -5 -5 -5 -5 -5 -5 -5 -5 -5 -5 -5 -5 -5 -5 -5 -5 -5 -5 -5 -5
-6 -6 -7 -7 -7 -7 -7 -7 -7 -7 -7 -7 -6 -6 -6 -6 -6 -6 -6 -6 -6 -6 -6 -6 -5 -5 -5 -5 -5 -5 -5 -5 -5 -5 -5 -5 -5 -5 -5 -5 -5 -5 -5
-7 -7 -7 -7 -7 -7 -7 -7 -7 -7 -7 -7 -7 -7 -7 -7 -6 -6 -6 -6 -6 -6 -6 -6 -6 -6 -5 -5 -5 -5 -5 -5 -5 -5 -5 -5 -5 -5 -5 -5 -5 -5 -5
-7 -7 -7 -7 -7 -7 -7 -7 -7 -7 -7 -7 -7 -7 -7 -7 -7 -7 -7 -6 -6 -6 -6 -6 -6 -6 -6 -6 -6 -5 -5 -5 -5 -5 -5 -5 -5 -5 -5 -5 -5 -5 -5
-7 -7 -7 -7 -7 -7 -7 -7 -7 -7 -7 -7 -7 -7 -7 -7 -7 -7 -7 -7 -6 -6 -6 -6 -6 -6 -6 -6 -6 -6 -6 -5 -5 -5 -5 -5 -5 -5 -6 -5 -5 -6 -6
-7 -7 -7 -7 -7 -7 -7 -7 -7 -7 -7 -7 -7 -7 -7 -7 -7 -7 -7 -7 -7 -6 -6 -6 -6 -6 -6 -6 -6 -6 -6 -6 -6 -6 -6 -6 -6 -6 -6 -6 -6 -6 -6
-8 -8 -7 -7 -7 -7 -7 -7 -8 -7 -7 -7 -7 -7 -7 -7 -7 -7 -7 -7 -7 -7 -6 -6 -6 -6 -6 -6 -6 -6 -6 -6 -6 -6 -6 -6 -6 -6 -6 -6 -6 -6 -6
-8 -8 -8 -8 -8 -8 -8 -8 -8 -8 -8 -8 -7 -7 -7 -7 -7 -7 -7 -7 -7 -7 -7 -6 -6 -6 -6 -6 -6 -6 -6 -6 -6 -6 -6 -6 -6 -6 -6 -6 -6 -6 -6
Wind_Speed
2 2 2 2 2 2 2 3 3 3 3 3 3 3 3 4 4 4 4 4 5 5 5 5 6 5 4 4 4 4 5 5 7 5 4 3 4 5 5 6 8 8 9
2 2 2 2 2 2 3 3 3 2 2 2 2 3 3 4 3 4 5 5 5 6 6 6 6 5 5 5 4 5 5 5 6 7 4 4 5 5 5 5 5 7 8
3 3 3 3 2 2 2 3 3 2 2 2 2 2 3 3 3 4 4 4 5 6 6 6 6 6 7 5 6 6 5 5 5 5 5 3 3 3 3 3 4 5 6
3 3 3 3 3 3 3 2 3 3 3 3 3 3 3 4 4 4 4 4 4 5 5 5 6 6 7 6 6 6 5 5 4 4 4 3 3 3 2 3 4 3 4
3 3 4 4 3 3 3 3 3 3 3 3 3 4 4 4 4 5 5 5 5 5 5 5 6 7 8 7 6 6 5 5 4 4 4 3 3 3 3 3 4 4 4
3 4 4 4 3 3 3 3 3 3 3 3 4 4 4 5 7 8 6 4 4 5 5 5 6 6 7 8 8 7 6 6 5 5 5 5 6 5 4 4 4 3 4
4 4 4 4 4 4 4 3 3 3 3 3 4 4 5 6 8 8 7 4 4 5 5 5 5 5 6 5 6 7 6 8 8 7 7 7 6 5 5 5 5 5 5
4 5 5 4 5 4 4 4 4 3 3 4 4 5 5 7 9 9 7 4 4 5 5 5 5 5 5 5 4 4 4 5 6 6 6 6 6 5 5 5 4 4 3
4 5 5 5 5 5 4 4 4 3 3 4 4 5 5 7 8 8 7 4 4 5 5 5 5 5 7 7 4 4 4 5 6 8 8 7 6 6 5 2 2 3 4
5 5 5 5 4 4 4 4 4 3 4 4 5 5 5 6 8 8 7 4 4 4 4 5 6 7 8 7 5 4 5 5 4 4 5 5 4 4 5 4 4 4 3
5 5 5 4 4 4 4 3 3 4 4 4 5 5 5 6 7 8 7 4 4 4 4 4 5 8 8 8 6 5 7 5 4 3 3 3 2 2 2 3 3 4 4
4 4 4 4 4 3 3 3 3 3 4 4 4 5 4 5 6 6 7 7 6 5 5 4 5 7 7 8 7 7 7 5 3 2 3 3 3 2 2 2 2 2 3
4 4 4 4 4 4 3 3 3 3 3 4 4 4 5 4 4 6 7 7 7 5 4 5 6 6 6 6 7 7 5 3 3 3 3 3 3 2 1 1 1 1 2
4 4 4 4 4 3 3 3 3 3 4 4 4 4 4 4 4 4 4 4 5 5 4 4 5 5 4 5 5 4 3 3 3 3 3 2 2 1 1 1 2 2 2
4 4 4 4 4 3 4 4 4 4 5 5 4 4 4 5 5 7 5 4 3 3 3 2 2 2 3 3 3 2 2 2 2 2 2 2 2 1 2 1 1 1 2
4 4 3 3 3 3 3 4 6 6 8 8 7 6 6 7 8 8 8 7 7 5 3 2 3 3 4 4 3 3 2 2 2 2 2 2 2 2 2 1 1 2 2
4 4 3 3 3 3 3 4 5 6 7 7 7 7 7 7 7 7 7 7 6 5 3 3 3 4 4 4 3 3 3 2 2 2 2 2 2 2 2 2 2 2 2
4 5 4 3 3 3 3 4 4 4 5 5 5 6 7 6 6 7 6 4 3 3 2 3 4 4 4 4 3 3 2 2 2 2 2 2 2 2 2 2 2 2 2
4 3 3 3 3 3 3 4 4 4 4 4 4 5 6 6 5 5 4 2 2 3 3 3 4 4 4 4 3 3 3 3 2 2 2 2 2 2 2 2 2 3 2
3 5 4 3 3 3 3 3 3 3 4 4 4 4 4 3 2 3 2 2 2 3 3 3 3 3 3 3 3 3 3 3 3 2 2 2 2 3 3 3 3 3 2
3 4 4 3 2 3 3 3 3 3 4 4 4 4 4 2 3 3 3 3 2 3 3 3 3 3 3 2 2 3 3 3 3 3 2 2 2 2 2 2 3 2 2
3 3 3 2 2 2 3 3 3 3 3 4 3 4 5 3 2 2 3 3 3 3 3 3 3 3 3 3 3 3 3 3 3 3 2 2 2 2 2 2 2 2 2
3 3 3 2 2 3 3 2 2 3 3 3 3 3 3 3 3 3 3 3 3 3 3 3 3 3 3 3 3 3 3 3 3 3 3 3 2 2 2 2 3 2 2
2 2 2 3 2 2 2 3 3 3 3 3 3 3 3 3 3 3 3 3 3 3 3 3 2 3 4 3 3 4 4 4 4 4 4 3 3 2 2 2 2 2 2
2 2 2 2 2 3 3 3 3 3 3 3 3 3 3 3 3 3 3 3 3 3 4 3 3 3 3 4 3 3 3 3 3 3 3 3 3 3 2 2 2 2 2
2 2 2 2 2 2 2 3 3 3 3 3 3 3 3 3 3 3 3 3 3 3 3 3 4 4 4 3 3 3 3 3 2 2 2 2 3 2 2 2 2 2 2
Wind_Direction
318 310 305 300 301 300 286 275 262 259 254 250 254 251 250 249 244 237 235 231 232 241 242 238 242 242 244 246 242 242 238 232 249 261 252 255 242 250 262 260 258 257 257
323 319 310 306 310 310 301 294 281 269 270 260 258 266 267 265 257 247 243 241 241 244 245 241 244 245 243 243 240 242 244 238 240 255 258 251 247 242 244 253 264 263 261
330 328 318 310 309 300 295 300 296 281 275 275 263 267 270 275 276 265 252 252 255 254 250 245 248 243 246 245 242 243 246 248 242 246 255 252 258 250 246 261 262 263 267
328 320 312 303 295 287 287 291 290 286 278 275 268 261 263 265 266 263 259 257 257 258 256 252 253 248 248 248 249 246 246 247 243 245 250 254 261 265 238 256 277 267 268
323 314 305 303 302 302 297 290 286 288 287 279 272 267 264 264 261 259 254 254 252 258 262 260 260 261 259 255 254 246 239 241 238 243 254 256 254 254 247 248 264 280 278
314 308 308 309 310 308 302 295 292 290 289 285 277 270 268 268 276 277 272 260 260 260 264 267 270 270 270 270 269 265 251 243 240 243 251 252 252 249 245 246 255 275 278
306 306 306 303 304 301 300 297 286 284 287 287 285 281 276 279 284 285 280 265 259 263 265 267 273 276 275 268 273 277 277 272 259 248 246 248 248 243 241 247 247 254 262
300 301 302 300 296 296 294 290 285 284 285 284 285 283 283 283 284 283 282 268 260 260 259 258 261 270 268 265 262 265 266 270 269 259 249 253 251 246 238 244 252 265 278
292 292 292 292 289 291 290 288 290 291 290 286 284 279 279 284 285 279 279 260 260 263 261 258 257 259 270 272 263 263 274 278 282 276 270 265 263 261 251 250 247 258 275
289 288 286 284 284 282 281 284 291 290 285 284 284 281 277 280 289 285 277 255 257 262 264 262 266 266 273 269 252 252 263 272 281 289 287 281 276 272 256 237 228 238 264
295 297 296 292 286 282 285 285 289 291 292 290 289 291 286 285 291 287 278 260 257 261 265 265 265 273 277 274 264 254 261 270 271 272 273 273 270 261 252 241 231 228 239
302 302 302 299 294 297 296 299 294 289 289 292 295 297 293 290 293 288 287 281 274 262 265 266 267 279 280 280 273 271 273 278 266 269 270 267 267 263 257 257 254 251 253
305 304 302 302 302 300 293 294 298 291 285 287 287 289 295 298 302 308 303 296 290 276 268 274 283 286 285 281 280 278 272 261 255 260 265 272 265 255 268 300 324 335 326
298 302 305 304 304 303 299 292 289 287 283 281 281 285 293 298 298 299 295 294 295 289 284 289 296 293 284 285 292 290 274 258 254 254 265 276 279 270 276 277 286 299 309
297 299 301 301 295 296 296 286 282 273 271 275 273 273 281 287 291 299 298 289 280 274 285 289 293 290 283 280 278 281 280 273 273 270 263 276 284 283 287 280 270 273 277
302 302 297 296 292 291 295 301 294 288 293 290 282 277 276 279 290 295 297 298 297 293 286 270 274 275 273 274 271 272 274 268 265 260 250 250 256 258 275 283 268 262 268
292 295 293 289 286 289 292 294 299 305 305 302 299 296 293 292 291 290 292 292 292 292 274 262 265 269 271 271 268 266 270 270 262 246 244 240 240 243 251 264 273 272 274
293 290 288 276 274 279 285 286 288 296 305 305 306 308 307 304 301 300 297 296 293 292 268 265 267 267 267 267 267 266 265 266 262 246 236 230 229 234 239 249 254 258 269
295 288 283 276 275 276 281 285 288 292 297 303 307 308 310 309 310 316 319 294 277 276 272 268 270 271 270 267 262 255 249 249 251 238 231 228 225 220 230 239 245 253 265
295 293 297 287 280 282 283 286 290 294 300 303 306 308 310 317 318 319 321 303 289 283 276 274 275 275 273 267 263 256 253 249 247 240 232 228 225 216 222 232 236 245 259
298 293 299 296 283 280 278 281 283 288 295 299 301 308 315 313 304 298 299 295 283 282 281 276 277 280 276 272 266 258 254 253 247 237 225 220 220 220 221 223 227 236 243
301 298 302 297 293 287 286 284 282 285 292 299 309 315 319 324 312 307 304 299 290 281 278 275 272 269 265 260 257 255 252 253 247 235 225 221 223 229 225 224 228 227 218
311 308 306 304 297 295 302 296 289 291 295 297 301 308 311 308 304 299 298 299 297 293 291 282 274 275 273 269 261 248 242 243 236 221 215 219 222 226 223 221 219 216 214
310 312 305 302 301 300 297 297 295 293 293 294 294 295 296 297 298 299 300 303 303 302 301 293 278 274 278 281 283 275 263 255 242 225 211 208 216 224 223 220 220 214 217
311 313 310 306 298 293 295 295 297 295 290 289 290 290 290 293 296 299 303 302 303 301 302 300 290 282 277 277 283 288 278 261 249 235 216 204 207 214 212 214 211 206 215
318 314 311 308 304 303 301 299 299 299 292 290 291 292 292 291 291 292 296 298 299 299 300 299 294 288 287 290 287 285 282 275 262 245 219 200 197 202 197 200 197 199 197
Height
1473 1473 1472 1472 1471 1471 1471 1471 1471 1471 1471 1471 1471 1471 1472 1472 1472 1473 1473 1474 1474 1475 1475 1476 1476 1477 1477 1477 1477 1477 1478 1478 1475 1474 1475 1476 1476 1475 1476 1476 1476 1476 1476
1470 1470 1469 1468 1468 1467 1467 1467 1467 1467 1467 1466 1466 1466 1466 1467 1467 1467 1468 1468 1469 1469 1470 1470 1470 1471 1471 1471 1471 1471 1471 1471 1471 1468 1468 1469 1469 1469 1469 1469 1469 1469 1469
1468 1467 1466 1465 1464 1464 1463 1463 1463 1462 1462 1462 1462 1462 1462 1462 1462 1462 1463 1463 1463 1464 1464 1464 1464 1465 1465 1465 1465 1465 1465 1465 1465 1464 1462 1463 1463 1463 1463 1463 1463 1463 1463
1465 1463 1462 1462 1461 1460 1460 1459 1459 1459 1458 1458 1458 1458 1458 1458 1458 1458 1458 1458 1458 1458 1458 1459 1459 1459 1459 1459 1459 1459 1459 1459 1458 1458 1457 1457 1457 1457 1457 1457 1456 1456 1456
1461 1460 1459 1459 1458 1457 1456 1456 1455 1455 1454 1454 1454 1454 1454 1454 1454 1454 1454 1454 1453 1453 1453 1453 1454 1454 1454 1454 1454 1453 1453 1452 1452 1452 1451 1451 1451 1451 1451 1451 1450 1450 1449
1458 1457 1456 1455 1455 1454 1453 1452 1452 1451 1451 1450 1450 1449 1449 1449 1449 1450 1449 1449 1448 1448 1448 1448 1448 1448 1448 1448 1448 1448 1448 1447 1446 1446 1446 1445 1445 1446 1447 1446 1445 1445 1443
1455 1454 1453 1452 1451 1451 1450 1449 1448 1448 1447 1447 1446 1445 1445 1445 1445 1445 1444 1444 1444 1443 1443 1443 1443 1442 1443 1442 1442 1441 1441 1442 1442 1442 1441 1440 1441 1441 1441 1441 1440 1439 1438
1452 1451 1450 1449 1448 1447 1446 1446 1445 1444 1444 1443 1442 1441 1441 1440 1440 1440 1440 1439 1438 1438 1438 1438 1437 1437 1437 1437 1437 1436 1436 1436 1436 1436 1436 1436 1436 1436 1436 1436 1435 1434 1433
1448 1447 1447 1446 1445 1444 1443 1442 1441 1441 1440 1439 1438 1437 1436 1436 1435 1435 1435 1434 1433 1433 1433 1433 1433 1432 1432 1433 1432 1430 1430 1430 1431 1431 1431 1431 1431 1431 1431 1431 1430 1429 1427
1445 1444 1443 1442 1441 1441 1440 1439 1438 1437 1436 1435 1434 1433 1432 1431 1431 1430 1430 1429 1428 1428 1428 1428 1428 1428 1428 1427 1427 1426 1425 1425 1425 1425 1425 1425 1425 1425 1426 1426 1425 1424 1423
1442 1441 1440 1439 1438 1437 1436 1435 1434 1433 1432 1431 1430 1429 1428 1427 1426 1425 1425 1424 1423 1423 1422 1422 1422 1423 1423 1422 1422 1421 1421 1421 1421 1420 1420 1419 1419 1420 1420 1420 1420 1419 1418
1439 1438 1436 1435 1434 1433 1432 1431 1430 1429 1428 1427 1425 1424 1423 1422 1421 1420 1420 1420 1419 1419 1418 1418 1418 1418 1418 1417 1417 1417 1417 1417 1416 1415 1415 1414 1414 1414 1414 1415 1414 1414 1414
1435 1434 1433 1432 1431 1430 1429 1428 1427 1425 1424 1423 1422 1420 1419 1418 1417 1417 1416 1415 1415 1414 1414 1414 1414 1413 1413 1413 1413 1412 1412 1412 1411 1411 1410 1410 1410 1410 1410 1410 1409 1409 1409
1432 1431 1430 1429 1427 1426 1425 1424 1423 1421 1420 1419 1418 1416 1415 1414 1413 1413 1412 1411 1411 1410 1410 1409 1409 1409 1409 1408 1408 1408 1407 1407 1407 1407 1406 1406 1406 1406 1406 1405 1405 1404 1404
1429 1428 1426 1426 1424 1423 1422 1420 1419 1418 1417 1416 1414 1413 1411 1410 1410 1409 1408 1407 1407 1407 1406 1405 1405 1405 1404 1404 1404 1403 1403 1404 1403 1403 1403 1402 1402 1402 1402 1402 1401 1401 1400
1425 1424 1423 1422 1421 1420 1418 1417 1415 1415 1413 1412 1411 1409 1408 1407 1406 1406 1405 1404 1404 1403 1403 1402 1401 1401 1401 1400 1400 1400 1400 1400 1400 1400 1399 1399 1399 1398 1398 1398 1398 1397 1397
1423 1421 1420 1418 1417 1416 1415 1413 1412 1411 1409 1408 1407 1405 1404 1403 1402 1402 1401 1401 1400 1400 1399 1398 1398 1398 1398 1398 1397 1397 1397 1397 1397 1396 1396 1396 1396 1396 1395 1395 1394 1394 1394
1419 1418 1416 1415 1414 1413 1411 1410 1408 1407 1405 1403 1403 1402 1400 1400 1399 1398 1398 1397 1397 1396 1396 1396 1395 1395 1395 1395 1394 1394 1394 1394 1393 1393 1393 1393 1393 1393 1392 1392 1391 1391 1391
1416 1414 1413 1412 1410 1409 1408 1407 1405 1404 1402 1400 1399 1398 1397 1396 1395 1395 1394 1394 1393 1393 1393 1393 1393 1392 1392 1392 1391 1391 1391 1391 1390 1390 1390 1390 1390 1390 1390 1389 1389 1388 1388
1412 1411 1410 1409 1407 1406 1405 1404 1402 1401 1399 1397 1396 1395 1394 1393 1392 1391 1391 1391 1390 1390 1390 1390 1389 1389 1389 1389 1388 1388 1388 1387 1387 1387 1387 1387 1387 1387 1387 1387 1386 1386 1386
1410 1408 1407 1406 1405 1403 1402 1401 1400 1398 1397 1395 1394 1393 1392 1390 1389 1388 1388 1388 1388 1387 1387 1387 1386 1386 1386 1386 1385 1385 1385 1384 1384 1384 1384 1384 1384 1385 1385 1385 1385 1384 1384
1408 1406 1405 1403 1402 1401 1400 1399 1397 1396 1395 1393 1392 1391 1390 1388 1387 1387 1386 1386 1385 1385 1385 1384 1384 1383 1383 1383 1382 1382 1382 1382 1382 1382 1382 1382 1382 1382 1382 1383 1383 1383 1383
1406 1404 1403 1401 1400 1399 1398 1396 1395 1394 1392 1391 1390 1388 1387 1387 1386 1385 1384 1384 1383 1383 1382 1382 1381 1381 1380 1380 1380 1379 1379 1379 1379 1380 1380 1380 1380 1380 1381 1381 1381 1381 1382
1404 1402 1401 1399 1398 1397 1395 1394 1393 1392 1390 1389 1388 1387 1386 1385 1384 1383 1382 1382 1381 1380 1380 1379 1378 1378 1378 1377 1377 1377 1377 1377 1377 1377 1377 1378 1378 1378 1379 1379 1380 1380 1380
1402 1400 1399 1397 1396 1395 1393 1392 1391 1390 1388 1387 1386 1385 1383 1383 1382 1381 1380 1379 1379 1378 1377 1377 1376 1375 1375 1375 1375 1374 1374 1374 1375 1375 1375 1376 1376 1377 1377 1377 1378 1378 1379
1401 1399 1397 1396 1394 1393 1392 1390 1389 1388 1386 1385 1384 1383 1381 1380 1379 1379 1378 1377 1376 1375 1375 1374 1373 1373 1373 1372 1372 1372 1372 1372 1373 1373 1374 1374 1374 1375 1375 1376 1376 1377 1378